Regional Weather Roundup
Issued by NWS

Home | Current Version | Previous Version | Text Only | Print | Product List | Glossary On
Versions: 1 2 3 4 5 6 7 8 9 10 11 12 13 14 15 16 17 18 19 20 21 22 23 24 25 26 27 28 29 30 31 32 33 34 35 36 37 38 39 40 41 42 43 44 45 46 47 48 49 50
000
ASUS43 KTOP 012108
RWRKS

WEATHER ROUNDUP FOR KANSAS
NATIONAL WEATHER SERVICE GOODLAND KS
300 PM CST THU DEC 01 2016

NOTE:  "FAIR" INDICATES FEW OR NO CLOUDS BELOW 12,000 FEET WITH NO
SIGNIFICANT WEATHER AND/OR OBSTRUCTIONS TO VISIBILITY.

KSZ001>006-013>018-027>032-041>047-012200-
NORTHWEST KANSAS

CITY           SKY/WX    TMP DP  RH WIND       PRES   REMARKS
GOODLAND       SUNNY     46   9  22 S9        29.94F
HAYS           SUNNY     49  17  28 SW5       29.99
HILL CITY      SUNNY     50  16  25 NW9       29.98F
RUSSELL        SUNNY     48  15  26 W6        29.98S
$$

KSZ061>065-074>080-084>089-012200-
SOUTHWEST KANSAS

CITY           SKY/WX    TMP DP  RH WIND       PRES   REMARKS
DODGE CITY     SUNNY     50  12  21 VRB6      29.97F
ELKHART          N/A     47  15  27 NE2         N/A
GARDEN CITY    SUNNY     48  10  21 CALM      29.95F
GREAT BEND     SUNNY     48  16  27 VRB3      29.99F
LIBERAL        SUNNY     48  14  25 NE8       29.95F
PRATT          SUNNY     48  12  23 NE6       29.97F
$$

KSZ066>073-081>083-090>101-012200-
SOUTHEAST KANSAS

CITY           SKY/WX    TMP DP  RH WIND       PRES   REMARKS
CHANUTE        SUNNY     50  25  37 S5        30.03F
COFFEYVILLE    SUNNY     53  25  33 S5        30.03F
MEDICINE LODGE   N/A     52  17  25 E8        29.97F
NEWTON         SUNNY     49  21  33 CALM      30.00F
PARSONS        SUNNY     51  25  36 VRB3      30.04F
WICHITA INTL   MOSUNNY   52  21  29 NE7       29.99S
WICHITA JABRA  SUNNY     52  20  28 VRB3      30.00S
WICHITA MCCONL SUNNY     54  20  26 VRB3      29.99S
WINFIELD       SUNNY     54  24  31 S7        30.00F
$$

KSZ007>012-019>026-033>040-048>060-102>105-012200-
NORTHEAST KANSAS

CITY           SKY/WX    TMP DP  RH WIND       PRES   REMARKS
CONCORDIA      SUNNY     43  24  47 W9        30.00S
EMPORIA        SUNNY     48  22  35 VRB3      30.02S
LAWRENCE       SUNNY     44  25  47 W9        30.04S
MANHATTAN      SUNNY     47  24  40 W10       30.02S
MARYSVILLE     SUNNY     45  27  49 NW5       30.00S
OLATHE IND     SUNNY     43  24  47 W9        30.03S
OLATHE EXE     SUNNY     43  23  45 W10       30.03S
SALINA         SUNNY     49  23  36 S6        30.02S
TOPEKA BILLARD SUNNY     45  25  45 SW6       30.03S
TOPEKA FORBES  SUNNY     46  24  42 W7        30.02F
$$




USA.gov is the U.S. government's official web portal to all federal, state and local government web resources and services.